Terminal Aerodrome Forecast
Issued by NWS Memphis, TN

Home | Current Version | Previous Version | Text Only | Print | Product List | Glossary On
Versions: 1 2 3 4 5 6 7 8 9 10 11 12 13 14 15 16 17 18 19
000
FTUS44 KMEG 302336
TAFMKL
TAF
KMKL 302336Z 3100/3124 20003KT P6SM VCTS SCT030CB BKN250
     FM310200 00000KT P6SM SCT250
      TEMPO 3108/3112 1SM BR
     FM311400 23007KT P6SM VCTS SCT040CB BKN250=

USA.gov is the U.S. government's official web portal to all federal, state and local government web resources and services.